Location: Lafig�re
(44.4503°N, 4.0357°E)
Time: 08:19:26
(UTC+00:00)

Cosmos 1092 Rocket - Pass Details

Date: 24 January 2021
Orbit: 954 x 994 km, 83.0° (Epoch: 08 March)

Event Time Altitude Azimuth Distance (km) Brightness Sun altitude
Rises 20:20:01 0° 249° (WSW) 3,649 7.7 -38.6°
Reaches altitude 10° 20:24:47 10° 283° (WNW) 2,700 7.0 -39.5°
Maximum altitude 20:26:38 11° 300° (WNW) 2,603 6.8 -39.8°
Drops below altitude 10° 20:28:28 10° 318° (NW) 2,699 6.8 -40.1°
Sets 20:33:16 0° 351° (N) 3,646 7.2 -40.9°
